Location: Unspecified
(51.0000°N, 12.0000°E)
Time: 14:12:19
(UTC+02:00)

ISS - Pass Details

Date: 09 January 2018
Orbit: 402 x 409 km, 51.6° (Epoch: 21 August)

Event Time Altitude Azimuth Distance (km) Brightness Sun altitude
Exits shadow 05:58:20 84° 184° (S) 430 -3.8 -20.2°
Drops below altitude 10° 06:01:44 10° 106° (ESE) 1,514 0.3 -19.7°
Enters shadow 06:55:10 -74° 299° (WNW) 12,648 3.7 -11.6°
